Location: Laas
(43.4693°N, 0.3073°E)
Time: 14:35:10
(UTC+00:00)

Cosmos 2227 Rocket - Pass Details

Date: 25 October 2020
Orbit: 839 x 845 km, 71.0° (Epoch: 23 November)

Event Time Altitude Azimuth Distance (km) Brightness Sun altitude
Rises 19:35:09 0° 328° (NNW) 3,406 5.9 -28.8°
Reaches altitude 10° 19:37:42 10° 322° (NW) 2,468 5.2 -29.3°
Maximum altitude 19:42:59 42° 253° (WSW) 1,197 3.3 -30.2°
Enters shadow 19:45:24 27° 204° (SSW) 1,553 3.6 -30.7°
